Dayton, OH

5:49 PM EDT on September 24, 2017 (GMT -0400)
Cox-Dayton International

Weather History for KDAY - June, 2012

Change the Weather History Date:

Sunday, June 3, 2012

  Actual Average Record
Temperature  
Mean Temperature 65 °F 67 °F  
Max Temperature 79 °F 77 °F 99 °F (1895)
Min Temperature 51 °F 57 °F 40 °F (1929)
Degree Days  
Heating Degree Days 0 2  
Month to date heating degree days 13 6  
Since 1 June heating degree days 13 6  
Since 1 July heating degree days 4598 5626  
Cooling Degree Days 0 4  
Month to date cooling degree days 0 12  
Year to date cooling degree days 183 82  
Since 1 June cooling degree days 0 12  
Growing Degree Days 15 (Base 50)    
Moisture  
Dew Point 48 °F    
Average Humidity 60    
Maximum Humidity 89    
Minimum Humidity 30    
Precipitation  
Precipitation 0.00 in 0.14 in 1.44 in (2008)
Month to date precipitation 0.58 0.44  
Year to date precipitation 13.45 17.48  
Snow  
Snow 0.00 in 0.00 in 0.00 in ()
Month to date snowfall 0.0 0.0  
Since 1 June snowfall 0.0 0.0  
Since 1 July snowfall 9.2 23.3  
Snow Depth 0.00 in    
Sea Level Pressure  
Sea Level Pressure 29.85 in    
Wind  
Wind Speed 10 mph (West)    
Max Wind Speed 21 mph    
Max Gust Speed 29 mph    
Visibility 10 miles    
Events      
T = Trace of Precipitation, MM = Missing Value Source: NWS Daily Summary

Daily Weather History Graph

Daily Weather History Graph

Search for Another Location

Airport or City:

Trip Planner

Search our weather history database for the weather conditions in past years. The results will help you decide how hot, cold, wet, or windy it might be!

Date:

Astronomy

Jun. 03, 2012 Rise Set
Actual Time 6:09 AM EDT 9:01 PM EDT
Civil Twilight 5:37 AM EDT 9:33 PM EDT
Nautical Twilight 4:56 AM EDT 10:14 PM EDT
Astronomical Twilight 4:10 AM EDT 11:00 PM EDT
Moon 8:25 PM EDT (6/3) 5:17 AM EDT (6/3)
Length of Visible Light 15h 56m
Length of Day
14h 51m
Waxing Gibbous, 99% of the Moon is Illuminated
Jun 3
Waxing Gibbous
Jun 4
Full
Jun 11
Last Quarter
Jun 19
New
Jun 26
First Quarter

Hourly Weather History & Observations

Time (EDT) Temp. Dew Point Humidity Pressure Visibility Wind Dir Wind Speed Gust Speed Precip Events Conditions
12:56 AM 55.9 °F 46.9 °F 72% 29.87 in 10.0 mi SSW 8.1 mph - N/A   Clear
1:56 AM 55.4 °F 48.2 °F 77% 29.87 in 10.0 mi SSW 8.1 mph - N/A   Clear
2:56 AM 55.0 °F 48.0 °F 77% 29.85 in 10.0 mi SW 6.9 mph - N/A   Clear
3:56 AM 55.0 °F 48.9 °F 80% 29.85 in 10.0 mi SW 9.2 mph - N/A   Scattered Clouds
4:56 AM 52.0 °F 48.0 °F 86% 29.85 in 10.0 mi SW 6.9 mph - N/A   Clear
5:56 AM 51.1 °F 48.0 °F 89% 29.85 in 9.0 mi SW 5.8 mph - N/A   Clear
6:56 AM 53.1 °F 48.9 °F 86% 29.86 in 7.0 mi SW 6.9 mph - N/A   Clear
7:56 AM 57.9 °F 51.1 °F 78% 29.87 in 10.0 mi WSW 9.2 mph - N/A   Clear
8:56 AM 62.1 °F 52.0 °F 70% 29.87 in 10.0 mi West 9.2 mph - N/A   Clear
9:56 AM 66.9 °F 52.0 °F 59% 29.88 in 10.0 mi West 9.2 mph - N/A   Clear
10:56 AM 70.0 °F 50.0 °F 49% 29.87 in 10.0 mi West 10.4 mph - N/A   Partly Cloudy
11:56 AM 73.0 °F 48.9 °F 42% 29.89 in 10.0 mi WNW 16.1 mph 21.9 mph N/A   Partly Cloudy
12:56 PM 73.0 °F 48.0 °F 41% 29.87 in 10.0 mi WNW 11.5 mph 23.0 mph N/A   Scattered Clouds
1:56 PM 75.9 °F 48.0 °F 37% 29.86 in 10.0 mi West 15.0 mph 21.9 mph N/A   Scattered Clouds
2:56 PM 77.0 °F 48.9 °F 37% 29.85 in 10.0 mi West 12.7 mph 20.7 mph N/A   Scattered Clouds
3:56 PM 77.0 °F 46.0 °F 33% 29.84 in 10.0 mi West 13.8 mph 24.2 mph N/A   Mostly Cloudy
4:56 PM 77.0 °F 46.0 °F 33% 29.82 in 10.0 mi NW 15.0 mph - N/A   Mostly Cloudy
5:56 PM 78.1 °F 44.1 °F 30% 29.81 in 10.0 mi NW 16.1 mph 21.9 mph N/A   Mostly Cloudy
6:56 PM 75.0 °F 44.1 °F 33% 29.82 in 10.0 mi NW 10.4 mph - N/A   Mostly Cloudy
7:56 PM 72.0 °F 43.0 °F 35% 29.82 in 10.0 mi NW 6.9 mph - N/A   Mostly Cloudy
8:56 PM 70.0 °F 44.1 °F 39% 29.83 in 10.0 mi WNW 5.8 mph - N/A   Mostly Cloudy
9:56 PM 66.9 °F 45.0 °F 45% 29.83 in 10.0 mi West 5.8 mph - N/A   Mostly Cloudy
10:56 PM 64.0 °F 48.9 °F 58% 29.83 in 10.0 mi West 5.8 mph - N/A   Mostly Cloudy
11:56 PM 66.0 °F 46.0 °F 48% 29.83 in 10.0 mi West 6.9 mph - N/A   Mostly Cloudy